(°C)
(°C)
SE
ESE
L
ESE
SSE
SSE
L
(km/h)
6-11
5-11
6-8
7-12
9-15
7-14
6-17
(mm)
0
0
1
0
1.4
1.3
1
(%)
63
70
91
70
99
99
99

Elevação do sol

/ -13.4°
sun-icon
UV 3
04:53
20:12
Minguante côncava (313°)
04:00
15:21

METAR para 52.17°N 20.97°L (EPWA)

Hora Condições Temperatura/
Ponto de condensação
Vento Visibilidade Tempo Nuvens Pressão Mudança Bruto
VFR 7°C / 4°C 110º variable 070º to 130º 4kt >10km Light Rain Broken Clouds 4800ft 1006 No Significant change EPWA 070100Z 11004KT 070V130 9999 -RA BKN048 07/04 Q1006 NOSIG
VFR 7°C / 4°C 130º 5kt >10km Light Rain Broken Clouds 4800ft 1006 No Significant change EPWA 070030Z 13005KT 9999 -RA BKN048 07/04 Q1006 NOSIG
VFR 7°C / 5°C variable 2kt >10km - Broken Clouds 4800ft 1006 No Significant change EPWA 070000Z VRB02KT 9999 BKN048 07/05 Q1006 NOSIG
VFR 7°C / 4°C variable 2kt >10km - Scattered Clouds 4700ft 1006 No Significant change EPWA 062330Z VRB02KT 9999 SCT047 07/04 Q1006 NOSIG
VFR 7°C / 4°C 120º 2kt >10km Light Showers Rain Few Clouds 5000ft 1006 No Significant change EPWA 062300Z 12002KT 9999 -SHRA FEW050CB 07/04 Q1006 NOSIG
VFR 7°C / 5°C 120º 2kt >10km - Few Clouds 5500ft 1007 No Significant change EPWA 062230Z 12002KT 9999 FEW055CB 07/05 Q1007 NOSIG
VFR 7°C / 4°C 200º 1kt >10km Light Showers Rain Few Clouds 5500ft 1007 No Significant change EPWA 062200Z 20001KT 9999 -SHRA FEW055CB 07/04 Q1007 NOSIG
VFR 7°C / 3°C variable 2kt >10km - Clouds and Visibility OK 1007 No Significant change EPWA 062130Z VRB02KT CAVOK 07/03 Q1007 NOSIG
VFR 8°C / 2°C 250º 2kt >10km - Clouds and Visibility OK 1007 No Significant change EPWA 062100Z 25002KT CAVOK 08/02 Q1007 NOSIG
VFR 8°C / 2°C variable 2kt >10km - Clouds and Visibility OK 1007 No Significant change EPWA 062030Z VRB02KT CAVOK 08/02 Q1007 NOSIG
VFR 8°C / 2°C variable 2kt >10km - Clouds and Visibility OK 1007 No Significant change EPWA 062000Z VRB02KT CAVOK 08/02 Q1007 NOSIG
VFR 9°C / 2°C 230º variable 200º to 270º 4kt >10km - Clouds and Visibility OK 1007 No Significant change EPWA 061930Z 23004KT 200V270 CAVOK 09/02 Q1007 NOSIG
VFR 8°C / 1°C 200º 5kt >10km - Clouds and Visibility OK 1007 No Significant change EPWA 061900Z 20005KT CAVOK 08/01 Q1007 NOSIG
VFR 9°C / 2°C 200º 5kt >10km - Clouds and Visibility OK 1007 No Significant change EPWA 061830Z 20005KT CAVOK 09/02 Q1007 NOSIG
VFR 9°C / 1°C 240º 3kt >10km - Clouds and Visibility OK 1007 No Significant change EPWA 061800Z 24003KT CAVOK 09/01 Q1007 NOSIG
VFR 9°C / 2°C 270º 6kt >10km - Clouds and Visibility OK 1007 No Significant change EPWA 061730Z 27006KT CAVOK 09/02 Q1007 NOSIG
VFR 9°C / 2°C 290º 12kt >10km - Few Clouds 5000ft 1007 No Significant change EPWA 061700Z 29012KT 9999 FEW050CB 09/02 Q1007 NOSIG
VFR 10°C / -1°C 260º variable 210º to 300º 16kt Gust 26kt >10km - Scattered Clouds 5000ft 1007 No Significant change EPWA 061630Z 26016G26KT 210V300 9999 SCT050CB 10/M01 Q1007 NOSIG
VFR 12°C / -1°C 240º 8kt >10km - Few Clouds 5000ft 1007 No Significant change EPWA 061600Z 24008KT 9999 FEW050CB 12/M01 Q1007 NOSIG
VFR 13°C / -1°C 240º variable 210º to 270º 10kt >10km - Clouds and Visibility OK 1007 No Significant change EPWA 061530Z 24010KT 210V270 CAVOK 13/M01 Q1007 NOSIG
VFR 12°C / -1°C 260º 15kt >10km - Clouds and Visibility OK 1007 No Significant change EPWA 061500Z 26015KT CAVOK 12/M01 Q1007 NOSIG
VFR 12°C / 0°C 240º variable 210º to 270º 9kt >10km - Clouds and Visibility OK 1007 No Significant change EPWA 061430Z 24009KT 210V270 CAVOK 12/M00 Q1007 NOSIG
VFR 12°C / 1°C 230º variable 170º to 260º 10kt >10km - Few Clouds 5000ft 1007 No Significant change EPWA 061400Z 23010KT 170V260 9999 FEW050CB 12/01 Q1007 NOSIG
VFR 11°C / -1°C 260º variable 220º to 290º 16kt >10km - Scattered Clouds 5000ft 1007 No Significant change EPWA 061330Z 26016KT 220V290 9999 SCT050CB 11/M01 Q1007 NOSIG

VFR

7°C / 4°C

[Mais]
Vento 110º variable 070º to 130º 4kt
Visibilidade >10km
Tempo Light Rain
Nuvens Broken Clouds 4800ft
Pressão 1006
Mudança No Significant change
Bruto EPWA 070100Z 11004KT 070V130 9999 -RA BKN048 07/04 Q1006 NOSIG

VFR

7°C / 4°C

[Mais]
Vento 130º 5kt
Visibilidade >10km
Tempo Light Rain
Nuvens Broken Clouds 4800ft
Pressão 1006
Mudança No Significant change
Bruto EPWA 070030Z 13005KT 9999 -RA BKN048 07/04 Q1006 NOSIG

VFR

7°C / 5°C

[Mais]
Vento variable 2kt
Visibilidade >10km
Tempo -
Nuvens Broken Clouds 4800ft
Pressão 1006
Mudança No Significant change
Bruto EPWA 070000Z VRB02KT 9999 BKN048 07/05 Q1006 NOSIG

VFR

7°C / 4°C

[Mais]
Vento variable 2kt
Visibilidade >10km
Tempo -
Nuvens Scattered Clouds 4700ft
Pressão 1006
Mudança No Significant change
Bruto EPWA 062330Z VRB02KT 9999 SCT047 07/04 Q1006 NOSIG

VFR

7°C / 4°C

[Mais]
Vento 120º 2kt
Visibilidade >10km
Tempo Light Showers Rain
Nuvens Few Clouds 5000ft
Pressão 1006
Mudança No Significant change
Bruto EPWA 062300Z 12002KT 9999 -SHRA FEW050CB 07/04 Q1006 NOSIG

VFR

7°C / 5°C

[Mais]
Vento 120º 2kt
Visibilidade >10km
Tempo -
Nuvens Few Clouds 5500ft
Pressão 1007
Mudança No Significant change
Bruto EPWA 062230Z 12002KT 9999 FEW055CB 07/05 Q1007 NOSIG

VFR

7°C / 4°C

[Mais]
Vento 200º 1kt
Visibilidade >10km
Tempo Light Showers Rain
Nuvens Few Clouds 5500ft
Pressão 1007
Mudança No Significant change
Bruto EPWA 062200Z 20001KT 9999 -SHRA FEW055CB 07/04 Q1007 NOSIG

VFR

7°C / 3°C

[Mais]
Vento variable 2kt
Visibilidade >10km
Tempo -
Nuvens Clouds and Visibility OK
Pressão 1007
Mudança No Significant change
Bruto EPWA 062130Z VRB02KT CAVOK 07/03 Q1007 NOSIG

VFR

8°C / 2°C

[Mais]
Vento 250º 2kt
Visibilidade >10km
Tempo -
Nuvens Clouds and Visibility OK
Pressão 1007
Mudança No Significant change
Bruto EPWA 062100Z 25002KT CAVOK 08/02 Q1007 NOSIG

VFR

8°C / 2°C

[Mais]
Vento variable 2kt
Visibilidade >10km
Tempo -
Nuvens Clouds and Visibility OK
Pressão 1007
Mudança No Significant change
Bruto EPWA 062030Z VRB02KT CAVOK 08/02 Q1007 NOSIG

VFR

8°C / 2°C

[Mais]
Vento variable 2kt
Visibilidade >10km
Tempo -
Nuvens Clouds and Visibility OK
Pressão 1007
Mudança No Significant change
Bruto EPWA 062000Z VRB02KT CAVOK 08/02 Q1007 NOSIG

VFR

9°C / 2°C

[Mais]
Vento 230º variable 200º to 270º 4kt
Visibilidade >10km
Tempo -
Nuvens Clouds and Visibility OK
Pressão 1007
Mudança No Significant change
Bruto EPWA 061930Z 23004KT 200V270 CAVOK 09/02 Q1007 NOSIG

VFR

8°C / 1°C

[Mais]
Vento 200º 5kt
Visibilidade >10km
Tempo -
Nuvens Clouds and Visibility OK
Pressão 1007
Mudança No Significant change
Bruto EPWA 061900Z 20005KT CAVOK 08/01 Q1007 NOSIG

VFR

9°C / 2°C

[Mais]
Vento 200º 5kt
Visibilidade >10km
Tempo -
Nuvens Clouds and Visibility OK
Pressão 1007
Mudança No Significant change
Bruto EPWA 061830Z 20005KT CAVOK 09/02 Q1007 NOSIG

VFR

9°C / 1°C

[Mais]
Vento 240º 3kt
Visibilidade >10km
Tempo -
Nuvens Clouds and Visibility OK
Pressão 1007
Mudança No Significant change
Bruto EPWA 061800Z 24003KT CAVOK 09/01 Q1007 NOSIG

VFR

9°C / 2°C

[Mais]
Vento 270º 6kt
Visibilidade >10km
Tempo -
Nuvens Clouds and Visibility OK
Pressão 1007
Mudança No Significant change
Bruto EPWA 061730Z 27006KT CAVOK 09/02 Q1007 NOSIG

VFR

9°C / 2°C

[Mais]
Vento 290º 12kt
Visibilidade >10km
Tempo -
Nuvens Few Clouds 5000ft
Pressão 1007
Mudança No Significant change
Bruto EPWA 061700Z 29012KT 9999 FEW050CB 09/02 Q1007 NOSIG

VFR

10°C / -1°C

[Mais]
Vento 260º variable 210º to 300º 16kt Gust 26kt
Visibilidade >10km
Tempo -
Nuvens Scattered Clouds 5000ft
Pressão 1007
Mudança No Significant change
Bruto EPWA 061630Z 26016G26KT 210V300 9999 SCT050CB 10/M01 Q1007 NOSIG

VFR

12°C / -1°C

[Mais]
Vento 240º 8kt
Visibilidade >10km
Tempo -
Nuvens Few Clouds 5000ft
Pressão 1007
Mudança No Significant change
Bruto EPWA 061600Z 24008KT 9999 FEW050CB 12/M01 Q1007 NOSIG

VFR

13°C / -1°C

[Mais]
Vento 240º variable 210º to 270º 10kt
Visibilidade >10km
Tempo -
Nuvens Clouds and Visibility OK
Pressão 1007
Mudança No Significant change
Bruto EPWA 061530Z 24010KT 210V270 CAVOK 13/M01 Q1007 NOSIG

VFR

12°C / -1°C

[Mais]
Vento 260º 15kt
Visibilidade >10km
Tempo -
Nuvens Clouds and Visibility OK
Pressão 1007
Mudança No Significant change
Bruto EPWA 061500Z 26015KT CAVOK 12/M01 Q1007 NOSIG

VFR

12°C / 0°C

[Mais]
Vento 240º variable 210º to 270º 9kt
Visibilidade >10km
Tempo -
Nuvens Clouds and Visibility OK
Pressão 1007
Mudança No Significant change
Bruto EPWA 061430Z 24009KT 210V270 CAVOK 12/M00 Q1007 NOSIG

VFR

12°C / 1°C

[Mais]
Vento 230º variable 170º to 260º 10kt
Visibilidade >10km
Tempo -
Nuvens Few Clouds 5000ft
Pressão 1007
Mudança No Significant change
Bruto EPWA 061400Z 23010KT 170V260 9999 FEW050CB 12/01 Q1007 NOSIG

VFR

11°C / -1°C

[Mais]
Vento 260º variable 220º to 290º 16kt
Visibilidade >10km
Tempo -
Nuvens Scattered Clouds 5000ft
Pressão 1007
Mudança No Significant change
Bruto EPWA 061330Z 26016KT 220V290 9999 SCT050CB 11/M01 Q1007 NOSIG

TAF para 52.17°N 20.97°L (EPWA)

From till


From till Wind variable 2kt. Visibility 10km or more. Nil Significant Cloud.
Becoming from till Wind variable 2kt. Visibility 10km or more. Light Rain . Scattered Clouds 700ft. Broken Clouds 1200ft.
Temporarly from till Visibility 3000m. Rain Mist . Broken Clouds 600ft.
Becoming from till Wind 290º 10kt. Visibility 10km or more. Light Rain . Broken Clouds 1600ft.
Temporarly from till Light Showers Rain . Broken Clouds 700ft. Broken Clouds 1200ft.
Becoming from till Wind 290º 10kt. Visibility 10km or more. Light Rain . Broken Clouds 1000ft.
Temporarly from till Visibility 3000m. Rain Mist . Broken Clouds 600ft.
With 40% probability, Temporarly from till Visibility 2000m. Rain Snow Mist . Broken Clouds 400ft.

Bruto: TAF EPWA 062330Z 0700/0724 VRB02KT CAVOK BECMG 0702/0705 -RA SCT007 BKN012 TEMPO 0704/0711 3000 RA BR BKN006 BECMG 0709/0711 29010KT BKN016 TEMPO 0711/0717 -SHRA BKN007 BKN012CB BECMG 0715/0717 -RA BKN010 TEMPO 0717/0724 3000 RA BR BKN006 PROB40 TEMPO 0718/0724 2000 RASN BR BKN004

Current satellite and rain images for 52.17°N 20.97°L

  • Precipitação:
  • <1 mm
  • 1-2 mm
  • 2-5 mm
  • >5 mm

O marcador de lugar é colocado em 52.17°N 20.97°L. [Mais]

A imagem de satélite em tempo real combina luz visível durante o dia com radiação infravermelha durante a noite. À noite, a imagem não é escura, pois a radiação infravermelha pode detectar diferenças de temperatura. Infelizmente, nuvens baixas e neblina são difíceis de distinguir das temperaturas do solo e, portanto, podem ser quase invisíveis durante a noite. As imagens de satélite Meteosat para a Europa são atualizadas em tempo real a cada 5 minutos. GOES-16/GOES-17 ( América do Norte e do Sul) e Himawari (Ásia) são atualizadas a cada 10 minutos.

A precipitação é estimada por radares e satélites. A estimativa da precipitação noturna por satélites é menos precisa do que durante o dia. Cruzes laranjas identificam lugares onde relâmpagos foram detetados (em Europa).

Copyright 2021 EUMETSAT / meteoblue. Dados de relâmpagos fornecidos por nowcast.